Location: ???????
(55.4362°N, 38.1183°E)
Time: 01:48:29
(UTC+00:00)

Cosmos 1932 - Pass Details

Date: 28 October 2021
Orbit: 943 x 987 km, 65.0° (Epoch: 01 December)

Event Time Altitude Azimuth Distance (km) Brightness Sun altitude
Rises 15:34:01 0° 313° (NW) 3,620 8.2 -14.2°
Reaches altitude 10° 15:36:38 10° 308° (NW) 2,674 7.5 -14.5°
Maximum altitude 15:42:35 48° 236° (SW) 1,224 5.4 -15.4°
Drops below altitude 10° 15:48:32 10° 164° (SSE) 2,680 6.6 -16.2°
Sets 15:51:10 0° 159° (SSE) 3,629 7.3 -16.6°
